SCP
-0 0 0 0 0 0 -0 0 0 0 0 0 0 0 0 0 0 0 0 0 0 0 0 0 0 0 0 0 0 0 0 0 0 0 0 0 0 0 0 0 0 0 0 0 0
0 0 0 0 0 0 -0 0 0 0 0 0 0 0 0 0 0 0 0 0 0 0 0 0 0 0 0 0 0 0 0 0 0 0 0 0 0 0 0 0 0 0 0 0 0
0 0 0 0 0 -0 0 0 0 -0 0 0 0 0 0 0 0 0 0 0 0 0 0 0 0 0 0 0 0 0 0 0 0 0 0 0 0 0 0 0 0 0 0 0 0
0 0 0 0 0 -0 0 0 0 0 0 0 0 0 0 0 0 0 0 0 0 0 0 0 0 0 0 0 0 0 0 0 0 0 0 0 0 0 0 0 0 0 0 0 0
0 0 0 0 0 0 0 0 -0 -0 0 0 0 0 0 0 0 0 0 0 0 0 0 0 0 0 0 0 0 0 0 0 0 0 0 0 0 0 0 0 0 0 0 0 0
0 0 0 -0 -0 0 -0 0 -0 -0 -0 0 0 0 0 0 0 0 0 0 0 0 0 0 0 0 0 0 0 0 0 0 0 0 0 0 0 0 0 0 0 0 0 0 0
0 -0 -0 -0 -0 -0 -0 -0 -0 -0 -0 0 0 0 0 0 0 0 0 0 0 0 0 0 0 0 0 0 0 0 0 0 0 0 0 0 0 0 0 0 0 0 0 0 0
-0 -0 -0 -0 -0 -0 -0 -0 -0 -0 0 0 0 0 0 0 0 0 0 0 0 0 0 0 0 0 0 0 0 0 0 0 0 0 0 0 0 0 0 0 0 0 0 0 0
-0 -0 -0 -0 -0 -0 0 -0 -0 -0 0 0 0 0 0 0 0 0 0 0 0 0 0 0 0 0 0 0 0 0 0 0 0 0 0 0 0 0 0 0 0 0 0 -0 -0
-0 -0 -0 -0 -0 -0 0 0 -0 0 0 0 0 0 0 0 0 0 0 0 0 0 0 0 0 0 0 0 0 0 0 0 0 0 0 0 0 0 0 0 0 0 0 0 0
-0 -0 -0 -0 -0 0 0 0 -0 0 0 0 0 0 0 0 0 0 0 0 0 0 0 0 0 0 0 0 0 0 0 0 0 0 0 0 0 0 0 0 0 0 0 0 0
-0 -0 -0 -0 -0 0 0 -0 -0 -0 0 0 0 0 0 0 0 0 0 0 0 0 0 0 0 0 0 0 0 0 0 0 0 0 0 0 0 0 0 0 0 0 0 0 0
-0 -0 -0 -0 0 0 0 0 0 0 0 0 0 0 0 0 0 0 0 0 0 0 0 0 0 0 0 0 0 0 0 0 0 0 0 0 0 0 0 0 0 0 0 0 0
0 -0 -0 0 0 0 0 0 0 0 0 0 0 0 0 0 0 0 0 0 0 0 0 0 0 0 0 0 0 0 0 0 0 0 0 0 0 0 0 0 0 0 0 0 0
-0 0 0 0 0 0 0 0 0 0 0 0 0 0 0 0 0 0 0 0 0 0 0 0 0 0 0 0 0 0 0 0 0 0 0 0 0 0 0 0 0 0 0 0 0
-0 -0 -0 0 0 0 0 0 0 0 0 0 0 0 0 0 0 0 0 0 0 0 0 0 0 0 0 0 0 0 0 0 0 0 0 0 0 0 0 0 0 0 0 0 0
-0 -0 -0 0 0 0 0 0 0 0 0 0 0 0 0 0 0 0 0 0 0 0 0 0 0 0 0 0 0 0 0 0 0 0 0 0 -0 0 0 0 0 0 0 0 0
-0 -0 -0 -0 0 0 0 0 0 0 0 0 0 0 0 0 0 0 0 0 0 0 0 0 0 0 0 0 0 0 0 0 0 0 -0 0 0 0 0 0 0 0 -0 0 0
-0 -0 -0 0 0 0 -0 -0 -0 0 0 0 0 0 0 0 0 0 0 0 0 0 0 0 0 0 0 0 0 0 0 0 0 0 -0 -0 0 0 0 0 0 0 0 0 0
-0 -0 -0 -0 0 -0 -0 -0 -0 -0 0 0 0 0 0 0 0 0 0 0 0 0 0 0 0 0 0 0 0 0 0 0 0 0 0 0 -0 -0 0 0 0 0 0 0 0
0 0 -0 -0 0 -0 -0 -0 -0 -0 -0 -0 0 0 0 0 0 0 0 0 0 0 0 0 0 0 0 0 0 0 0 0 0 0 0 0 0 -0 -0 0 0 0 0 0 0
0 0 0 0 0 0 -0 -0 -0 -0 -0 -0 -0 -0 0 0 0 0 0 0 0 0 0 0 0 0 0 0 0 0 0 0 0 0 0 0 0 0 0 0 -0 0 0 0 0
0 0 0 0 0 0 0 0 0 0 0 0 0 0 0 0 0 0 0 0 0 0 0 0 0 0 0 0 0 0 0 0 0 0 0 0 0 0 0 0 0 -0 -0 -0 -0
0 0 0 0 0 0 0 0 0 0 0 0 0 0 0 0 0 0 0 0 0 0 0 0 0 0 0 0 0 0 0 0 0 0 0 0 0 0 0 0 0 0 0 0 -0
0 0 0 0 0 0 0 0 0 0 0 0 0 0 0 0 0 0 0 0 0 0 0 0 0 0 0 0 0 0 0 0 0 0 0 0 0 0 0 0 0 -0 -0 -0 -0
0 0 0 0 0 0 0 0 0 0 0 0 0 0 0 0 0 0 0 0 0 0 0 0 0 0 0 0 0 0 0 0 0 0 0 0 0 0 0 0 0 -0 -0 -0 -0
0 0 0 0 0 0 0 0 0 0 0 0 0 0 0 0 0 0 0 0 0 0 0 0 0 0 0 0 0 0 0 0 0 0 0 0 0 0 0 0 0 0 0 0 -0
Wind_Speed_500mb
35 40 35 28 11 4 28 29 43 19 36 12 21 30 26 22 16 22 19 12 28 37 35 38 37 32 23 12 9 6 8 7 10 12 10 8 7 5 13 22 7 15 26 21 56
40 46 41 36 16 6 29 41 15 31 35 25 19 30 30 27 16 15 13 22 32 42 43 39 36 35 13 8 3 3 8 7 3 3 9 8 9 14 10 11 7 9 23 42 52
36 39 39 36 22 31 7 21 32 28 25 8 13 34 30 40 9 1 16 30 30 39 41 31 29 21 7 7 2 7 7 5 3 8 13 11 10 6 22 4 13 26 40 51 51
31 32 34 36 37 35 25 26 19 18 23 23 7 41 39 11 6 2 25 25 32 38 42 36 28 11 8 7 2 14 17 5 4 8 8 8 15 8 5 3 13 35 43 51 53
29 28 36 28 29 28 27 24 18 18 29 31 24 33 27 4 4 19 22 19 25 42 35 31 19 11 11 8 5 14 4 12 12 17 15 12 9 6 4 8 24 37 47 48 48
25 28 27 27 30 35 35 25 23 25 14 19 29 34 9 3 11 15 11 21 35 39 29 27 18 24 21 9 14 12 23 11 11 14 11 5 3 2 7 22 30 37 41 47 43
25 30 24 33 28 28 32 34 39 32 45 24 39 33 24 18 9 9 25 35 37 33 39 34 26 12 15 11 14 15 11 9 16 11 7 4 2 7 12 26 32 38 43 45 43
23 29 31 28 27 28 33 33 40 34 19 33 27 24 12 21 21 22 36 37 37 37 42 33 25 40 15 20 13 9 9 7 6 8 6 4 11 3 15 30 37 41 44 47 48
24 28 27 25 26 33 31 50 39 33 46 20 32 18 7 20 26 29 35 42 40 39 39 26 21 19 12 12 8 12 5 4 3 6 6 5 9 5 12 25 31 40 45 49 53
23 26 25 30 30 38 40 42 46 42 25 19 26 15 13 16 26 29 28 29 33 33 23 16 12 8 8 7 8 8 9 4 6 9 6 5 18 13 12 28 37 39 47 53 59
20 24 21 32 41 34 37 20 8 19 51 22 13 13 22 18 26 23 24 26 23 27 9 14 13 13 14 10 9 13 9 7 3 6 3 10 14 22 29 31 41 52 54 58 61
15 22 27 26 17 13 8 20 16 28 28 38 36 29 25 19 14 24 18 13 18 11 6 14 13 7 12 16 16 12 12 5 3 4 6 8 23 34 25 28 54 65 66 69 64
7 16 23 13 13 13 39 39 23 24 17 21 28 16 13 12 15 26 20 10 14 14 14 13 2 11 12 10 14 7 12 4 5 6 2 13 14 10 9 32 43 57 60 62 68
6 9 16 5 10 22 21 20 11 9 10 13 10 8 8 6 10 23 18 11 13 8 8 11 7 11 13 8 6 8 2 7 4 4 3 7 9 13 8 15 12 36 45 63 72
5 10 12 4 3 11 11 12 11 4 10 4 9 2 12 8 6 10 22 16 9 5 6 3 3 8 7 6 5 6 3 3 3 6 5 6 5 15 9 12 10 12 15 30 41
7 13 12 11 4 3 13 15 9 11 4 5 4 5 6 9 4 2 7 13 7 8 11 4 3 3 5 3 5 11 7 10 8 5 5 4 7 12 6 7 11 15 33 34 29
7 14 14 12 10 2 12 16 10 10 8 7 1 2 6 4 7 7 6 6 5 8 4 7 4 4 4 8 6 9 9 5 9 8 6 2 1 22 16 21 13 27 38 32 32
8 13 17 10 9 8 7 11 11 3 6 1 2 4 7 5 6 6 4 5 5 8 6 8 5 8 2 3 8 4 8 7 6 3 8 1 11 12 10 22 33 35 33 31 34
8 13 20 11 9 7 1 8 13 12 6 9 5 8 2 1 6 6 4 3 3 5 7 7 7 5 6 4 2 3 4 2 9 4 3 7 13 18 8 6 27 31 35 38 43
11 10 13 14 7 7 8 6 5 9 10 5 6 2 5 5 6 7 9 5 4 11 2 5 1 5 9 4 9 4 9 7 5 1 8 10 10 11 11 16 14 20 35 48 50
13 6 7 13 11 6 7 10 3 6 2 7 5 5 4 2 4 2 2 2 3 7 2 5 5 4 3 4 11 4 1 9 5 7 7 6 11 12 11 3 16 32 44 41 51
12 3 7 24 9 5 7 9 4 2 5 5 8 8 6 3 4 1 4 5 2 5 8 4 6 4 9 3 2 7 11 12 8 8 8 4 17 5 4 7 15 36 40 60 68
14 6 9 29 6 2 1 3 4 4 0 4 5 5 2 7 2 4 2 7 1 2 6 7 3 5 15 8 4 7 6 7 5 5 29 3 19 5 16 36 55 48 70 72 82
13 3 5 11 8 13 10 3 7 10 8 7 7 6 6 5 6 2 3 8 10 7 7 8 5 10 10 4 2 4 2 3 9 11 21 30 42 52 34 19 44 61 54 48 57
16 8 14 5 6 8 4 8 8 8 8 13 3 10 13 8 5 6 2 3 7 6 6 6 4 3 8 8 5 8 5 10 7 17 16 36 27 52 37 27 37 56 68 64 61
13 14 13 10 29 16 7 15 21 7 13 9 11 18 15 14 13 15 14 7 5 7 5 6 4 3 8 10 8 7 8 16 25 30 34 35 58 35 72 69 53 57 56 49 53
52 24 12 24 14 11 12 15 21 20 15 9 17 9 7 12 12 13 13 13 8 11 7 5 7 6 9 7 10 15 21 29 31 33 16 37 53 40 33 48 53 47 53 60 44
Wind_Direction_500mb
4 358 356 11 24 159 241 272 311 179 194 105 124 131 146 162 161 169 192 209 207 174 168 162 171 178 196 191 162 162 71 134 162 158 150 149 128 103 109 133 122 166 157 170 165
8 1 5 9 24 211 282 321 190 174 173 194 85 103 131 147 151 220 240 201 184 164 165 171 175 174 183 137 122 144 82 158 188 123 127 125 114 130 132 132 93 117 157 167 169
16 14 18 25 26 349 125 87 142 167 177 204 53 106 139 133 136 77 172 173 167 170 174 166 174 183 117 87 46 15 100 156 66 88 121 123 102 113 138 225 181 173 156 167 172
25 35 38 36 5 35 87 105 129 132 160 167 46 106 122 156 102 186 164 153 172 162 164 169 171 141 79 98 35 96 82 58 75 66 85 96 126 110 177 197 177 174 175 172 181
33 45 62 41 45 56 101 110 109 109 133 158 97 110 125 357 309 157 149 146 168 157 155 179 162 117 104 117 60 76 94 69 89 85 86 113 72 154 207 161 159 171 174 180 192
57 62 77 50 47 61 72 84 81 106 122 117 87 120 133 49 160 125 119 133 144 153 160 153 152 128 95 70 60 102 96 98 66 81 80 109 119 71 194 158 164 180 185 191 198
48 65 65 56 54 64 83 92 124 73 122 87 98 103 70 73 60 85 110 108 138 144 121 124 124 152 99 86 103 99 79 63 27 33 51 35 285 227 188 174 177 190 200 206 210
43 61 60 53 64 85 102 105 110 76 114 91 81 76 67 94 60 97 95 109 116 112 108 96 111 99 81 100 51 64 59 83 348 20 17 57 269 35 192 186 192 203 209 209 214
48 66 68 61 74 103 106 109 93 84 141 67 59 51 31 90 63 80 104 104 105 100 91 110 105 81 88 98 57 25 107 96 5 46 10 79 279 28 205 206 213 213 218 224 225
53 66 74 79 110 113 97 95 82 87 96 70 44 69 33 25 48 66 100 109 100 99 88 67 71 84 51 72 155 154 109 32 317 348 29 310 270 273 228 213 228 230 228 229 232
67 74 81 106 119 110 110 103 80 61 64 57 43 71 54 61 45 69 97 99 76 66 58 33 74 91 104 76 107 112 99 101 284 338 252 253 280 276 256 230 236 237 236 237 240
78 85 113 111 103 133 93 107 108 114 72 61 71 67 45 27 35 45 59 54 58 65 12 53 59 87 85 81 86 84 96 34 335 303 210 317 276 265 219 227 231 235 238 241 244
86 100 138 131 74 95 112 109 112 109 88 46 52 58 35 5 29 15 32 49 56 50 44 84 43 123 90 68 79 48 107 131 210 299 69 318 294 297 288 247 257 252 254 256 254
132 106 135 109 94 100 76 81 92 117 85 339 11 39 5 123 21 25 30 45 37 83 52 65 353 101 90 77 108 80 285 152 147 69 278 25 286 300 319 299 250 264 255 258 258
188 155 157 133 107 72 43 38 24 32 86 59 332 39 69 111 143 7 32 54 65 67 95 269 75 91 74 170 128 139 110 80 74 85 19 7 67 273 337 323 337 336 281 278 278
189 207 164 153 166 68 15 357 14 47 253 323 297 335 60 28 45 28 47 74 99 78 43 93 59 60 143 43 68 136 96 48 50 67 30 307 112 291 290 287 325 321 311 320 323
211 210 204 157 169 259 341 346 33 95 275 276 192 98 104 60 66 30 18 43 118 99 63 15 6 307 164 88 32 76 63 346 360 13 225 102 143 253 274 274 263 285 317 334 339
212 206 208 204 160 137 0 41 60 223 229 275 206 46 78 10 20 33 77 108 43 75 125 148 264 208 170 162 175 109 133 143 255 280 280 123 233 250 226 296 288 296 301 320 342
202 207 207 214 200 147 122 57 198 209 158 147 27 75 32 36 108 64 56 151 255 205 130 123 284 321 65 27 74 177 164 166 94 53 25 247 291 285 329 355 2 23 32 19 6
202 194 209 212 190 150 79 210 199 201 143 156 135 144 159 186 122 155 175 214 237 212 11 159 297 17 350 47 39 148 160 66 11 334 285 287 272 235 307 325 349 0 353 347 348
191 188 212 183 170 93 141 201 260 305 19 123 127 102 65 122 81 36 114 317 198 35 114 125 123 310 97 166 181 66 132 54 129 158 215 284 259 222 219 296 346 339 0 20 27
187 32 185 164 84 56 159 186 120 336 340 41 109 118 129 163 78 293 210 283 317 134 133 220 120 198 232 142 112 159 181 165 163 225 232 247 261 223 286 344 342 350 339 325 324
188 151 184 176 151 213 357 161 184 121 143 25 51 51 45 157 6 215 184 22 224 55 133 190 343 29 343 2 22 227 196 193 76 65 248 299 262 232 352 332 310 313 320 318 316
188 87 123 181 138 137 139 235 178 174 145 165 139 126 105 103 25 189 254 16 31 35 35 139 141 170 192 209 43 267 300 232 200 240 279 251 281 280 282 284 290 302 316 320 316
215 222 167 195 236 120 140 146 165 180 148 172 133 173 156 128 100 185 227 356 59 24 54 93 190 190 268 272 269 249 280 327 305 270 252 277 270 276 295 293 296 306 306 307 307
206 169 159 143 150 116 184 213 182 202 158 227 167 182 175 164 173 184 161 178 182 48 62 12 236 128 286 277 312 286 278 243 261 261 259 269 270 267 283 290 300 301 305 306 314
204 210 202 159 145 128 205 193 200 155 212 229 188 118 210 201 140 95 116 116 137 155 137 125 130 74 251 24 321 285 207 214 243 252 244 260 270 288 294 297 300 305 300 305 310
Wind_Speed_850mb
35 40 35 28 11 4 28 29 43 19 36 12 21 30 26 22 16 22 19 12 28 37 35 38 37 32 23 12 9 6 8 7 10 12 10 8 7 5 13 22 7 15 26 21 56
40 46 41 36 16 6 29 41 15 31 35 25 19 30 30 27 16 15 13 22 32 42 43 39 36 35 13 8 3 3 8 7 3 3 9 8 9 14 10 11 7 9 23 42 52
36 39 39 36 22 31 7 21 32 28 25 8 13 34 30 40 9 1 16 30 30 39 41 31 29 21 7 7 2 7 7 5 3 8 13 11 10 6 22 4 13 26 40 51 51
31 32 34 36 37 35 25 26 19 18 23 23 7 41 39 11 6 2 25 25 32 38 42 36 28 11 8 7 2 14 17 5 4 8 8 8 15 8 5 3 13 35 43 51 53
29 28 36 28 29 28 27 24 18 18 29 31 24 33 27 4 4 19 22 19 25 42 35 31 19 11 11 8 5 14 4 12 12 17 15 12 9 6 4 8 24 37 47 48 48
25 28 27 27 30 35 35 25 23 25 14 19 29 34 9 3 11 15 11 21 35 39 29 27 18 24 21 9 14 12 23 11 11 14 11 5 3 2 7 22 30 37 41 47 43
25 30 24 33 28 28 32 34 39 32 45 24 39 33 24 18 9 9 25 35 37 33 39 34 26 12 15 11 14 15 11 9 16 11 7 4 2 7 12 26 32 38 43 45 43
23 29 31 28 27 28 33 33 40 34 19 33 27 24 12 21 21 22 36 37 37 37 42 33 25 40 15 20 13 9 9 7 6 8 6 4 11 3 15 30 37 41 44 47 48
24 28 27 25 26 33 31 50 39 33 46 20 32 18 7 20 26 29 35 42 40 39 39 26 21 19 12 12 8 12 5 4 3 6 6 5 9 5 12 25 31 40 45 49 53
23 26 25 30 30 38 40 42 46 42 25 19 26 15 13 16 26 29 28 29 33 33 23 16 12 8 8 7 8 8 9 4 6 9 6 5 18 13 12 28 37 39 47 53 59
20 24 21 32 41 34 37 20 8 19 51 22 13 13 22 18 26 23 24 26 23 27 9 14 13 13 14 10 9 13 9 7 3 6 3 10 14 22 29 31 41 52 54 58 61
15 22 27 26 17 13 8 20 16 28 28 38 36 29 25 19 14 24 18 13 18 11 6 14 13 7 12 16 16 12 12 5 3 4 6 8 23 34 25 28 54 65 66 69 64
7 16 23 13 13 13 39 39 23 24 17 21 28 16 13 12 15 26 20 10 14 14 14 13 2 11 12 10 14 7 12 4 5 6 2 13 14 10 9 32 43 57 60 62 68
6 9 16 5 10 22 21 20 11 9 10 13 10 8 8 6 10 23 18 11 13 8 8 11 7 11 13 8 6 8 2 7 4 4 3 7 9 13 8 15 12 36 45 63 72
5 10 12 4 3 11 11 12 11 4 10 4 9 2 12 8 6 10 22 16 9 5 6 3 3 8 7 6 5 6 3 3 3 6 5 6 5 15 9 12 10 12 15 30 41
7 13 12 11 4 3 13 15 9 11 4 5 4 5 6 9 4 2 7 13 7 8 11 4 3 3 5 3 5 11 7 10 8 5 5 4 7 12 6 7 11 15 33 34 29
7 14 14 12 10 2 12 16 10 10 8 7 1 2 6 4 7 7 6 6 5 8 4 7 4 4 4 8 6 9 9 5 9 8 6 2 1 22 16 21 13 27 38 32 32
8 13 17 10 9 8 7 11 11 3 6 1 2 4 7 5 6 6 4 5 5 8 6 8 5 8 2 3 8 4 8 7 6 3 8 1 11 12 10 22 33 35 33 31 34
8 13 20 11 9 7 1 8 13 12 6 9 5 8 2 1 6 6 4 3 3 5 7 7 7 5 6 4 2 3 4 2 9 4 3 7 13 18 8 6 27 31 35 38 43
11 10 13 14 7 7 8 6 5 9 10 5 6 2 5 5 6 7 9 5 4 11 2 5 1 5 9 4 9 4 9 7 5 1 8 10 10 11 11 16 14 20 35 48 50
13 6 7 13 11 6 7 10 3 6 2 7 5 5 4 2 4 2 2 2 3 7 2 5 5 4 3 4 11 4 1 9 5 7 7 6 11 12 11 3 16 32 44 41 51
12 3 7 24 9 5 7 9 4 2 5 5 8 8 6 3 4 1 4 5 2 5 8 4 6 4 9 3 2 7 11 12 8 8 8 4 17 5 4 7 15 36 40 60 68
14 6 9 29 6 2 1 3 4 4 0 4 5 5 2 7 2 4 2 7 1 2 6 7 3 5 15 8 4 7 6 7 5 5 29 3 19 5 16 36 55 48 70 72 82
13 3 5 11 8 13 10 3 7 10 8 7 7 6 6 5 6 2 3 8 10 7 7 8 5 10 10 4 2 4 2 3 9 11 21 30 42 52 34 19 44 61 54 48 57
16 8 14 5 6 8 4 8 8 8 8 13 3 10 13 8 5 6 2 3 7 6 6 6 4 3 8 8 5 8 5 10 7 17 16 36 27 52 37 27 37 56 68 64 61
13 14 13 10 29 16 7 15 21 7 13 9 11 18 15 14 13 15 14 7 5 7 5 6 4 3 8 10 8 7 8 16 25 30 34 35 58 35 72 69 53 57 56 49 53
52 24 12 24 14 11 12 15 21 20 15 9 17 9 7 12 12 13 13 13 8 11 7 5 7 6 9 7 10 15 21 29 31 33 16 37 53 40 33 48 53 47 53 60 44
Wind_Direction_850mb
4 358 356 11 24 159 241 272 311 179 194 105 124 131 146 162 161 169 192 209 207 174 168 162 171 178 196 191 162 162 71 134 162 158 150 149 128 103 109 133 122 166 157 170 165
8 1 5 9 24 211 282 321 190 174 173 194 85 103 131 147 151 220 240 201 184 164 165 171 175 174 183 137 122 144 82 158 188 123 127 125 114 130 132 132 93 117 157 167 169
16 14 18 25 26 349 125 87 142 167 177 204 53 106 139 133 136 77 172 173 167 170 174 166 174 183 117 87 46 15 100 156 66 88 121 123 102 113 138 225 181 173 156 167 172
25 35 38 36 5 35 87 105 129 132 160 167 46 106 122 156 102 186 164 153 172 162 164 169 171 141 79 98 35 96 82 58 75 66 85 96 126 110 177 197 177 174 175 172 181
33 45 62 41 45 56 101 110 109 109 133 158 97 110 125 357 309 157 149 146 168 157 155 179 162 117 104 117 60 76 94 69 89 85 86 113 72 154 207 161 159 171 174 180 192
57 62 77 50 47 61 72 84 81 106 122 117 87 120 133 49 160 125 119 133 144 153 160 153 152 128 95 70 60 102 96 98 66 81 80 109 119 71 194 158 164 180 185 191 198
48 65 65 56 54 64 83 92 124 73 122 87 98 103 70 73 60 85 110 108 138 144 121 124 124 152 99 86 103 99 79 63 27 33 51 35 285 227 188 174 177 190 200 206 210
43 61 60 53 64 85 102 105 110 76 114 91 81 76 67 94 60 97 95 109 116 112 108 96 111 99 81 100 51 64 59 83 348 20 17 57 269 35 192 186 192 203 209 209 214
48 66 68 61 74 103 106 109 93 84 141 67 59 51 31 90 63 80 104 104 105 100 91 110 105 81 88 98 57 25 107 96 5 46 10 79 279 28 205 206 213 213 218 224 225
53 66 74 79 110 113 97 95 82 87 96 70 44 69 33 25 48 66 100 109 100 99 88 67 71 84 51 72 155 154 109 32 317 348 29 310 270 273 228 213 228 230 228 229 232
67 74 81 106 119 110 110 103 80 61 64 57 43 71 54 61 45 69 97 99 76 66 58 33 74 91 104 76 107 112 99 101 284 338 252 253 280 276 256 230 236 237 236 237 240
78 85 113 111 103 133 93 107 108 114 72 61 71 67 45 27 35 45 59 54 58 65 12 53 59 87 85 81 86 84 96 34 335 303 210 317 276 265 219 227 231 235 238 241 244
86 100 138 131 74 95 112 109 112 109 88 46 52 58 35 5 29 15 32 49 56 50 44 84 43 123 90 68 79 48 107 131 210 299 69 318 294 297 288 247 257 252 254 256 254
132 106 135 109 94 100 76 81 92 117 85 339 11 39 5 123 21 25 30 45 37 83 52 65 353 101 90 77 108 80 285 152 147 69 278 25 286 300 319 299 250 264 255 258 258
188 155 157 133 107 72 43 38 24 32 86 59 332 39 69 111 143 7 32 54 65 67 95 269 75 91 74 170 128 139 110 80 74 85 19 7 67 273 337 323 337 336 281 278 278
189 207 164 153 166 68 15 357 14 47 253 323 297 335 60 28 45 28 47 74 99 78 43 93 59 60 143 43 68 136 96 48 50 67 30 307 112 291 290 287 325 321 311 320 323
211 210 204 157 169 259 341 346 33 95 275 276 192 98 104 60 66 30 18 43 118 99 63 15 6 307 164 88 32 76 63 346 360 13 225 102 143 253 274 274 263 285 317 334 339
212 206 208 204 160 137 0 41 60 223 229 275 206 46 78 10 20 33 77 108 43 75 125 148 264 208 170 162 175 109 133 143 255 280 280 123 233 250 226 296 288 296 301 320 342
202 207 207 214 200 147 122 57 198 209 158 147 27 75 32 36 108 64 56 151 255 205 130 123 284 321 65 27 74 177 164 166 94 53 25 247 291 285 329 355 2 23 32 19 6
202 194 209 212 190 150 79 210 199 201 143 156 135 144 159 186 122 155 175 214 237 212 11 159 297 17 350 47 39 148 160 66 11 334 285 287 272 235 307 325 349 0 353 347 348
191 188 212 183 170 93 141 201 260 305 19 123 127 102 65 122 81 36 114 317 198 35 114 125 123 310 97 166 181 66 132 54 129 158 215 284 259 222 219 296 346 339 0 20 27
187 32 185 164 84 56 159 186 120 336 340 41 109 118 129 163 78 293 210 283 317 134 133 220 120 198 232 142 112 159 181 165 163 225 232 247 261 223 286 344 342 350 339 325 324
188 151 184 176 151 213 357 161 184 121 143 25 51 51 45 157 6 215 184 22 224 55 133 190 343 29 343 2 22 227 196 193 76 65 248 299 262 232 352 332 310 313 320 318 316
188 87 123 181 138 137 139 235 178 174 145 165 139 126 105 103 25 189 254 16 31 35 35 139 141 170 192 209 43 267 300 232 200 240 279 251 281 280 282 284 290 302 316 320 316
215 222 167 195 236 120 140 146 165 180 148 172 133 173 156 128 100 185 227 356 59 24 54 93 190 190 268 272 269 249 280 327 305 270 252 277 270 276 295 293 296 306 306 307 307
206 169 159 143 150 116 184 213 182 202 158 227 167 182 175 164 173 184 161 178 182 48 62 12 236 128 286 277 312 286 278 243 261 261 259 269 270 267 283 290 300 301 305 306 314
204 210 202 159 145 128 205 193 200 155 212 229 188 118 210 201 140 95 116 116 137 155 137 125 130 74 251 24 321 285 207 214 243 252 244 260 270 288 294 297 300 305 300 305 310